Location: Rouyn
(48.2500°N, 79.0330°W)
Time: 01:47:52
(UTC-05:00)

ISS - Visible Passes

Search period start: 01 December 2021 00:00
Search period end: 11 December 2021 00:00
Orbit: 417 x 423 km, 51.6° (Epoch: 01 December)

Date Brightness Start Highest point End Pass type
(mag) Time Alt. Az. Time Alt. Az. Time Alt. Az.
01 Dec -3.2 17:20:28 10° WNW 17:23:46 45° N 17:26:23 15° ENE visible
01 Dec -2.0 18:57:23 10° WNW 18:59:22 32° WNW 18:59:22 32° WNW visible
02 Dec -3.8 18:10:11 10° WNW 18:13:36 73° NNE 18:14:13 54° E visible
03 Dec -3.6 17:22:58 10° WNW 17:26:21 58° NNE 17:29:10 14° E visible
03 Dec -1.9 18:59:55 10° WNW 19:02:10 32° WSW 19:02:10 32° WSW visible
04 Dec -3.3 18:12:38 10° WNW 18:16:00 60° SSW 18:17:15 33° SE visible
05 Dec -3.7 17:25:23 10° WNW 17:28:47 84° SSW 17:32:11 10° ESE visible
05 Dec -1.2 19:02:50 10° W 19:05:14 18° SW 19:05:32 18° SW visible
06 Dec -1.7 18:15:15 10° W 18:18:09 27° SW 18:21:04 10° SSE visible
07 Dec -2.3 17:27:50 10° WNW 17:31:02 40° SSW 17:34:14 10° SE visible
08 Dec -0.4 18:18:52 10° WSW 18:20:06 12° SW 18:21:20 10° SSW visible
09 Dec -0.7 17:30:42 10° W 17:33:04 18° SW 17:35:25 10° S visible
